Regional Weather Roundup
Issued by NWS

Home | Current Version | Previous Version | Graphics & Text | Print | Product List | Glossary On
Versions: 1 2 3 4 5 6 7 8 9 10 11 12 13 14 15 16 17 18 19 20 21 22 23 24 25 26 27 28 29 30 31 32 33 34 35 36 37 38 39 40 41 42 43 44 45 46 47 48 49 50
000
ASUS43 KFSD 260410
RWRSD

WEATHER ROUNDUP FOR SOUTH DAKOTA
NATIONAL WEATHER SERVICE SIOUX FALLS SD
1100 PM CDT THU MAY 25 2017

NOTE: "FAIR" INDICATES FEW OR NO CLOUDS BELOW 12,000 FEET WITH NO
SIGNIFICANT WEATHER AND/OR OBSTRUCTIONS TO VISIBILITY.


SDZ001>005-009-010-012>017-260500-
NORTHWEST AND NORTH CENTRAL SOUTH DAKOTA

CITY           SKY/WX    TMP DP  RH WIND       PRES   REMARKS
BUFFALO          N/A     52  42  69 W12       29.70R
FAITH            N/A     51  43  74 W16       29.73R
MOBRIDGE       CLEAR     59  43  55 W14       29.64R
$$

SDZ012>016-024>037-041>051-057-063-072>074-260500-
SOUTHWEST AND SOUTH CENTRAL SOUTH DAKOTA

CITY           SKY/WX    TMP DP  RH WIND       PRES   REMARKS
RAPID CTY ARPT PTCLDY    51  40  65 N13       29.77R
PIERRE         CLOUDY    62  41  46 NW18G31   29.66R
CUSTER         CLEAR     45  31  58 VRB3      29.83R
ELLSWORTH AFB  MOCLDY    53  40  62 NW18      29.77R
PHILIP         MOCLDY    59  42  53 NW20G28   29.73R
PINE RIDGE     PTCLDY    56  42  59 N16G25    29.76R
SPEARFISH      FAIR      48  37  66 W12       29.82R
WINNER         FAIR      55  47  74 S6        29.66R
$$

SDZ004>011-016>023-039-040-260500-
NORTHEAST SOUTH DAKOTA

CITY           SKY/WX    TMP DP  RH WIND       PRES   REMARKS
ABERDEEN       MOCLDY    58  46  64 W8        29.60R
WATERTOWN      CLOUDY    54  52  93 S7        29.62R
BROOKINGS      CLEAR     56  53  90 SE8       29.64R
SISSETON         N/A     56  54  93 SE9       29.58R
$$

SDZ017-020-022-023-036>040-048>070-260500-
SOUTHEAST SOUTH DAKOTA

CITY           SKY/WX    TMP DP  RH WIND       PRES   REMARKS
SIOUX FALLS    CLEAR     56  51  84 CALM      29.64R
HURON          CLEAR     59  53  80 S7        29.61R
CHAMBERLAIN    CLOUDY    57  48  71 CALM      29.65R
MITCHELL       PTCLDY    61  55  81 SW3       29.63R
YANKTON        PTCLDY    61  54  77 NW3       29.64R
$$

ABBREVIATIONS USED IN REMARKS
   TC - TEMPERATURE IN CELSIUS
  WCI - WIND CHILL INDEX
   HX - HEAT INDEX
  VSB - VISIBILITY




USA.gov is the U.S. government's official web portal to all federal, state and local government web resources and services.